GFSWCAN_sfc_30mbdewp_000.txt.gz
Dewpoint
50 50 50 50 50 50 50 50 49 49 49 49 49 49 50 48 48 52 54 53 54 43 43 43 41 38 37 39 42 41 40 44 45 36 36 38 37 34 32 30 32 30 32 31 31 28 26 33 31 31 38 41 41 39
48 50 50 50 50 50 50 50 49 49 50 49 49 49 50 50 48 50 51 51 53 49 47 50 49 49 46 44 41 43 37 43 45 41 42 42 37 38 37 29 25 27 33 33 33 33 34 35 36 40 43 41 40 40
47 48 48 48 49 50 50 50 50 50 50 50 50 49 49 50 49 50 53 53 51 53 46 46 44 47 48 48 49 41 42 39 41 46 43 40 33 40 31 36 30 28 27 34 33 33 32 34 37 42 42 41 39 38
46 46 46 47 48 48 49 50 50 50 50 50 51 50 50 50 49 51 52 53 51 50 39 47 47 46 48 48 46 48 45 47 48 45 41 38 33 40 38 36 35 35 31 30 31 33 34 39 41 41 40 39 39 37
45 45 46 46 46 47 48 49 50 50 50 50 50 50 49 50 50 53 53 53 53 50 42 48 46 47 47 48 46 47 48 46 47 44 38 36 44 41 43 42 39 35 31 32 34 37 39 40 40 39 39 38 37 35
45 45 45 45 46 46 47 48 49 49 49 49 49 49 49 50 50 54 46 52 53 54 48 40 48 45 46 47 46 45 45 45 45 46 42 44 43 40 38 36 35 33 31 33 33 41 42 42 40 38 35 31 29 27
45 44 44 45 45 45 46 47 48 49 49 48 49 49 49 50 53 51 48 51 50 54 46 41 44 44 45 46 47 46 46 45 45 44 44 45 43 41 39 36 35 32 32 33 40 41 39 39 37 37 31 28 26 24
44 44 44 44 44 44 45 47 47 48 49 49 49 50 50 50 50 51 52 51 52 50 49 41 41 43 45 44 44 45 46 46 46 43 44 42 41 41 37 36 35 34 34 38 38 39 38 36 36 29 27 23 19 15
42 42 43 43 44 44 44 46 47 48 48 49 49 50 52 51 49 51 49 52 54 50 44 41 37 36 44 42 43 43 43 39 44 42 42 41 40 36 37 36 34 34 36 36 37 35 32 29 26 24 20 17 16 17
42 43 43 44 44 44 45 45 46 47 48 48 49 47 44 46 49 50 49 47 48 49 47 40 44 39 41 39 38 39 39 38 35 37 39 36 36 37 35 36 37 37 37 37 35 31 29 27 22 18 17 18 20 24
43 43 44 44 44 45 46 46 47 47 48 46 43 42 43 47 48 47 42 42 42 39 42 42 41 38 42 37 37 39 36 37 32 34 35 33 32 35 37 37 37 36 35 34 33 31 27 19 17 18 21 26 27 27
42 44 44 44 44 46 45 46 47 46 45 44 43 44 44 40 38 39 37 38 37 37 38 37 39 41 40 41 38 35 34 33 30 35 31 30 32 35 36 36 35 34 32 27 23 19 18 18 21 27 28 28 29 30
40 44 44 44 44 46 45 44 45 45 44 41 38 36 35 33 31 31 29 31 33 34 35 35 34 36 36 37 33 32 30 29 35 31 29 30 33 32 35 35 32 28 24 22 18 18 22 20 24 25 26 29 30 31
39 43 44 44 45 46 45 43 43 43 38 34 32 30 30 30 30 30 30 31 34 35 35 34 33 33 33 33 32 29 31 32 27 26 27 33 29 31 32 32 28 23 19 21 23 24 25 27 27 28 29 29 29 29
39 42 43 44 43 43 42 41 40 42 39 33 33 28 29 31 32 32 32 33 35 37 36 34 34 34 31 30 31 30 26 26 28 29 31 31 31 31 30 29 24 22 22 26 25 24 25 27 27 28 30 31 32 32
40 41 43 43 43 42 42 43 41 40 36 34 33 30 32 32 31 32 32 32 36 36 37 36 31 30 29 30 27 27 27 25 30 33 32 28 27 27 25 25 26 27 26 27 27 28 29 30 29 30 33 33 32 32
39 40 43 42 41 40 40 41 39 34 33 32 30 33 33 33 32 32 34 34 38 34 31 32 28 27 30 28 27 31 29 32 33 33 30 29 28 28 28 29 30 29 29 29 29 30 30 31 33 32 30 31 32 33
37 42 43 42 42 40 39 39 37 33 30 31 32 31 33 33 33 34 35 37 36 33 32 30 29 27 27 26 26 31 32 34 35 27 26 27 27 27 26 27 27 28 28 28 29 30 32 32 32 32 32 32 30 30
41 42 43 41 40 39 35 35 36 31 30 30 32 32 33 32 33 34 34 36 34 34 30 30 28 25 25 27 31 32 34 33 30 27 26 27 27 27 27 28 27 28 28 28 28 28 28 28 28 29 30 30 30 31
41 42 42 39 37 36 33 33 35 33 29 30 32 31 31 31 31 32 34 34 32 32 30 29 29 30 29 30 30 33 33 32 28 29 29 27 26 28 29 30 29 28 28 28 28 28 29 29 30 30 29 29 31 32
40 41 40 40 37 35 32 30 31 31 28 29 30 31 27 29 30 30 31 34 32 31 29 29 33 34 34 33 31 30 29 29 28 27 27 26 26 27 27 27 28 28 28 30 31 31 34 32 32 34 34 34 32 31
39 39 37 37 33 32 30 32 30 30 30 29 29 30 27 26 26 28 30 28 28 28 29 30 30 30 33 33 32 32 31 29 28 28 27 27 27 27 27 27 29 29 31 31 30 31 33 35 34 34 34 33 33 32
38 36 33 32 30 30 28 32 28 27 25 26 28 25 24 25 26 27 25 25 27 28 28 28 30 31 31 31 30 29 30 30 27 25 27 28 28 29 29 29 29 30 31 31 31 32 33 34 33 33 32 32 31 31
36 31 30 29 30 26 28 26 26 25 25 24 23 22 24 23 24 23 22 23 25 27 27 28 28 26 30 30 26 21 25 25 25 26 29 27 27 27 27 28 29 29 30 32 32 33 33 32 31 31 31 30 29 29
29 26 28 24 29 25 23 23 23 23 21 23 22 22 22 24 22 21 21 25 30 29 30 32 31 26 29 26 24 26 31 31 30 30 30 29 30 31 31 31 31 31 31 32 32 32 32 32 31 30 29 29 27 27
24 26 26 26 25 25 24 21 21 21 21 21 22 24 24 22 20 18 20 28 27 26 27 28 29 29 26 27 27 28 27 27 26 25 26 27 26 26 26 26 26 27 26 28 28 27 28 28 29 29 28 27 27 27
23 24 25 27 27 26 24 25 24 22 20 19 21 21 20 17 16 23 25 25 26 25 25 27 26 24 24 24 24 24 25 24 22 22 23 24 27 25 23 21 20 22 25 25 26 25 25 26 26 27 26 27 27 27
25 25 21 25 24 24 21 21 21 20 21 21 22 19 18 16 21 23 22 22 22 24 24 25 23 21 21 21 22 23 20 19 19 19 19 26 27 21 18 20 20 20 21 22 22 23 23 24 24 24 23 23 24 25
24 26 24 22 23 24 23 22 22 20 22 23 21 20 23 21 21 21 20 20 21 20 20 18 18 20 20 20 22 21 17 16 14 12 11 13 13 14 16 17 16 16 17 17 18 19 21 22 22 23 22 23 21 22
24 28 23 22 21 22 26 29 28 29 28 29 29 23 21 17 17 19 18 17 17 17 18 18 18 16 16 15 15 16 19 15 13 11 9 9 10 13 14 14 12 14 15 15 16 16 18 18 20 22 18 17 15 16
25 25 24 23 23 26 27 27 27 27 28 29 29 27 19 15 15 14 15 18 16 15 14 14 15 15 13 13 12 11 11 13 14 12 12 12 11 11 11 11 11 13 13 13 13 15 15 14 16 16 13 11 11 10
24 24 23 21 25 26 26 25 25 24 24 23 24 22 20 19 13 12 12 14 13 11 11 11 10 10 12 12 15 14 14 12 13 12 11 11 9 9 9 9 10 11 9 9 12 14 12 11 12 10 9 7 6 5
22 21 21 20 19 19 22 22 18 17 19 18 21 19 15 15 10 11 12 13 11 10 9 9 10 11 13 14 9 14 11 9 8 11 11 10 8 8 7 8 9 8 6 6 10 11 9 7 6 5 4 3 1 -1

GFSWCAN_sfc_30mbdewp_006.txt.gz
Dewpoint
50 49 49 48 49 49 49 49 48 49 49 48 48 49 49 48 50 53 51 54 48 43 47 49 46 41 42 40 36 41 38 39 36 26 22 30 33 30 30 31 30 24 23 27 28 25 17 30 33 29 29 41 41 40
49 49 48 48 49 49 49 48 49 49 49 49 48 49 49 49 51 55 49 54 54 45 47 49 49 49 46 41 42 42 31 40 37 32 34 37 33 36 30 26 33 24 24 24 28 25 29 32 32 37 40 40 41 39
49 48 48 49 49 49 49 49 49 50 50 49 49 48 49 49 51 53 52 54 50 44 44 44 44 48 48 48 46 37 43 45 44 40 39 38 28 37 30 32 31 32 34 32 33 32 34 35 42 43 43 41 41 40
49 49 49 49 50 49 50 50 50 50 49 49 48 48 48 49 50 54 52 54 46 42 32 44 48 46 48 49 49 45 45 47 45 40 36 35 27 36 30 30 33 28 35 32 32 34 39 40 42 43 42 41 41 40
46 47 48 48 48 49 49 49 49 49 48 48 48 48 48 49 50 54 53 52 53 41 34 45 47 47 48 49 48 48 46 45 43 39 35 33 34 38 38 37 33 35 30 29 27 33 34 36 42 42 41 40 40 39
45 46 46 46 47 48 48 48 49 48 47 48 48 49 50 51 53 52 45 52 51 52 41 36 45 45 46 48 48 47 47 47 44 39 37 38 43 36 35 35 38 39 39 36 35 38 40 40 42 41 40 39 36 25
45 45 45 46 46 46 47 48 48 47 47 47 49 50 50 51 50 47 41 49 50 50 40 40 40 43 45 48 46 46 48 47 45 42 39 39 42 40 36 33 35 37 37 38 40 42 41 41 40 41 29 25 21 20
44 44 44 44 45 46 47 47 48 48 47 48 50 50 51 50 50 50 50 50 51 47 41 37 38 40 45 43 42 44 43 44 44 42 42 42 41 38 36 38 39 39 39 39 43 41 41 40 36 29 22 20 20 20
44 44 44 45 45 45 46 47 48 48 48 49 50 51 48 48 47 50 49 50 52 45 40 39 34 32 43 41 41 41 41 40 41 41 41 41 39 37 37 37 38 39 38 39 41 38 39 36 23 21 20 21 20 21
44 45 45 45 45 44 45 47 48 48 48 50 48 43 42 45 47 49 46 43 43 45 43 39 39 38 41 38 38 39 38 37 36 38 40 37 36 39 39 40 39 38 38 40 37 35 30 27 25 22 22 23 23 23
44 45 45 45 46 46 47 47 48 49 48 47 44 43 44 46 47 44 39 38 40 39 41 40 39 39 41 38 38 38 36 36 33 33 35 32 31 33 36 37 38 39 39 36 31 31 29 28 25 26 25 25 24 23
44 45 44 44 45 45 46 47 47 45 44 45 44 44 42 40 40 38 37 37 37 36 37 39 39 40 40 40 37 36 34 34 30 35 33 29 30 35 37 33 29 26 27 28 30 30 27 25 23 18 15 14 19 24
44 45 45 44 43 42 43 43 45 45 44 42 39 36 37 34 33 34 32 33 34 34 36 37 37 37 38 38 35 35 32 30 35 31 29 30 36 29 25 26 27 29 30 27 25 27 21 19 19 17 15 21 24 26
44 43 44 43 43 42 42 42 43 41 39 36 35 32 32 30 30 30 31 32 33 34 34 34 33 35 34 35 33 31 31 31 28 26 26 32 35 31 31 29 26 26 27 27 21 20 19 19 21 25 26 26 26 26
41 43 43 43 42 42 42 41 41 40 36 33 32 28 29 30 32 32 32 32 34 35 35 34 33 33 31 30 31 29 27 25 27 26 30 32 35 34 29 23 20 21 23 24 24 23 24 24 25 26 27 28 29 29
40 42 42 42 41 41 42 41 39 37 34 32 31 29 31 30 31 32 32 32 35 35 35 33 31 30 29 29 27 27 25 24 28 31 32 34 32 28 28 24 24 26 26 25 25 27 28 28 27 28 30 29 29 29
39 41 43 42 43 42 40 38 35 33 32 30 30 32 32 31 31 31 33 34 37 34 30 31 28 26 30 27 27 30 27 30 33 34 33 31 27 28 29 29 29 30 29 30 29 28 28 28 28 30 28 28 28 29
41 43 42 41 41 41 36 36 33 30 28 31 30 31 32 32 32 33 34 36 35 32 32 30 31 28 27 25 26 31 32 33 34 32 31 29 28 28 27 26 27 26 25 26 27 27 27 27 27 27 28 29 29 29
41 42 41 41 40 36 33 33 34 28 29 30 32 32 31 32 32 33 34 34 33 34 30 30 27 27 28 29 31 32 32 32 30 29 28 28 28 27 28 27 27 27 27 28 28 28 28 29 29 29 29 29 29 30
40 40 40 40 39 33 30 30 34 29 26 28 31 31 30 29 30 31 33 33 32 31 29 27 28 30 29 28 31 29 32 33 28 27 28 27 28 27 27 26 26 27 28 28 28 28 28 28 28 28 29 30 30 30
38 38 38 37 35 35 34 30 31 33 31 28 31 29 27 29 27 29 31 33 30 28 25 29 31 32 32 30 30 31 29 28 27 26 25 24 26 26 26 27 28 27 27 26 26 27 27 28 28 29 31 31 30 30
39 39 36 36 32 31 31 33 32 30 28 28 29 28 26 25 25 26 29 26 26 28 30 29 31 31 32 30 29 29 29 28 27 27 27 27 27 28 28 28 27 26 27 28 27 27 28 29 29 29 30 29 29 28
37 36 34 32 28 27 27 32 30 28 24 25 30 26 24 24 26 27 24 24 25 29 30 30 30 31 31 30 29 29 29 28 28 28 27 27 28 26 25 25 25 24 23 24 25 25 25 26 26 27 28 28 29 29
37 34 28 26 26 25 28 28 30 29 27 25 25 23 23 24 25 23 20 23 29 29 29 29 29 29 28 27 25 24 24 25 25 25 23 21 21 22 23 23 21 20 19 21 21 20 20 20 21 22 24 25 26 27
28 25 26 23 28 25 23 22 25 24 23 24 24 23 22 23 20 20 20 25 26 27 28 28 27 28 26 25 25 24 22 20 19 19 21 22 21 18 17 18 18 16 15 15 14 14 15 16 17 18 19 21 22 24
23 25 23 23 24 24 22 20 22 23 23 24 23 23 23 21 19 19 22 25 25 25 26 26 25 24 23 23 22 20 18 19 18 17 19 18 16 13 12 11 11 10 12 13 13 11 11 13 14 15 16 17 20 21
22 22 26 29 28 28 26 27 27 25 23 22 21 22 21 17 17 20 24 24 25 25 24 24 23 23 21 22 20 16 13 12 12 14 18 14 12 12 12 10 8 9 10 11 12 11 11 11 12 12 15 16 17 17
27 26 22 25 27 28 24 24 23 23 24 25 23 19 18 16 16 20 21 24 24 21 21 21 21 22 20 16 13 10 8 7 9 17 13 10 9 10 10 9 8 9 8 9 10 9 9 11 12 13 14 15 11 11
25 27 26 23 25 25 24 24 24 25 27 24 19 20 17 17 16 19 19 21 22 20 16 15 14 15 15 14 12 10 7 6 4 4 3 3 3 6 7 6 6 5 6 8 7 7 9 11 14 14 13 11 8 7
23 26 23 22 22 23 24 25 26 26 27 27 21 19 16 15 14 15 16 17 16 15 14 12 11 10 10 10 10 11 10 7 7 6 4 4 5 6 5 4 3 4 5 7 5 4 6 8 11 9 8 7 6 4
26 26 21 22 23 25 25 26 26 26 26 25 19 15 12 11 13 13 13 12 11 10 9 8 8 8 8 8 8 8 7 7 7 8 7 7 6 4 3 3 3 3 5 4 3 4 4 6 5 5 2 2 1 0
23 22 22 21 21 25 23 22 22 21 20 21 19 17 14 11 7 8 12 8 7 7 6 5 6 7 7 7 5 4 4 4 5 7 8 6 3 2 2 3 3 3 3 -0 1 3 5 3 1 0 -1 -2 -2 -3
18 18 17 17 19 19 19 18 16 17 17 17 15 13 10 8 5 9 12 9 7 6 4 4 5 4 4 1 0 1 3 3 3 5 7 5 4 3 2 4 3 -0 -2 -3 -1 1 1 -0 -2 -2 -3 -4 -5 -6

GFSWCAN_sfc_30mbdewp_009.txt.gz
Dewpoint
48 48 48 48 47 48 48 48 48 48 48 48 49 49 49 51 52 50 52 53 44 43 47 48 44 41 41 39 35 40 38 38 32 26 19 25 30 30 28 29 30 27 24 24 25 21 13 28 30 29 29 34 38 38
48 48 48 48 48 48 48 48 48 49 48 49 48 48 49 51 53 53 50 54 52 45 46 49 49 49 46 40 41 41 35 37 35 29 29 33 30 33 29 23 32 24 22 21 24 19 28 31 32 34 36 36 39 39
48 48 48 48 48 48 48 49 49 49 48 47 47 48 49 51 53 53 52 53 45 43 44 44 46 48 49 48 45 37 40 42 39 37 37 36 27 34 28 30 31 32 32 27 30 29 30 32 34 40 41 39 41 41
48 48 48 48 48 48 49 49 49 48 47 47 47 48 49 51 53 53 51 52 42 38 36 43 48 46 49 49 49 43 44 45 41 38 35 33 26 34 29 30 32 30 34 31 32 33 35 38 39 40 42 42 41 40
48 48 49 49 49 49 49 49 48 47 48 48 48 49 49 52 52 52 51 51 51 35 34 43 46 47 47 48 47 47 45 43 40 37 35 33 32 35 36 34 31 34 29 28 24 28 32 32 37 41 42 41 41 39
47 48 48 49 49 49 49 48 47 47 47 48 49 49 50 51 53 45 35 50 51 48 39 37 44 45 47 48 47 47 47 44 42 39 37 35 38 36 34 34 35 37 37 32 30 34 34 37 40 42 41 41 41 32
46 46 47 47 47 48 48 48 47 47 47 48 49 50 49 49 49 42 35 48 49 47 38 40 40 43 45 46 45 46 46 46 43 40 37 37 40 39 35 32 32 35 37 38 39 41 40 41 40 42 37 34 27 22
45 45 46 46 46 47 47 48 47 47 47 49 50 50 50 50 50 48 50 48 48 43 39 34 37 39 44 43 43 43 43 44 43 41 40 40 39 37 36 36 37 38 38 38 39 41 39 41 40 30 23 22 21 22
45 45 44 45 46 47 47 48 48 47 47 49 49 48 46 47 46 49 48 49 48 42 37 37 31 29 42 39 39 40 41 40 40 40 40 40 37 36 37 38 38 38 38 38 41 40 40 36 25 21 23 25 27 23
45 45 45 45 45 46 47 48 48 47 49 48 45 40 41 45 47 47 44 42 41 43 42 37 37 37 41 38 38 38 38 38 35 38 40 38 37 39 38 37 38 39 39 40 38 36 26 25 29 33 33 33 27 25
45 45 46 46 46 47 47 48 49 48 47 45 43 42 45 46 44 41 38 37 39 38 40 38 38 38 41 38 39 37 36 35 32 34 36 33 31 33 35 34 34 36 35 33 33 32 33 33 32 31 28 29 29 23
45 44 43 44 44 45 46 47 46 45 44 44 44 43 40 38 38 36 34 37 36 35 37 38 39 40 40 39 37 36 35 34 31 35 33 28 30 26 27 30 31 32 32 33 33 32 32 33 34 34 30 21 22 25
44 43 43 43 43 43 43 45 45 45 43 41 39 37 38 35 35 34 32 33 34 34 35 36 37 36 38 37 35 35 32 31 34 31 30 31 29 31 31 32 32 33 35 35 35 35 30 20 20 20 21 24 25 23
43 43 42 42 42 42 42 43 42 40 39 36 36 33 33 31 30 31 31 32 32 33 34 35 33 35 34 35 33 31 31 32 28 26 26 31 31 33 34 33 31 30 32 30 22 21 22 22 22 24 25 26 25 25
42 42 42 42 43 41 41 40 40 38 35 32 31 28 28 30 31 31 32 33 33 35 35 34 33 34 32 31 31 29 27 25 26 25 29 32 33 33 27 22 24 26 26 24 24 25 26 26 26 26 27 28 28 28
42 41 42 42 42 40 40 39 37 35 33 31 30 29 31 30 30 32 32 32 35 34 34 34 31 30 29 29 27 26 25 23 27 31 32 33 30 31 31 31 30 30 28 27 28 29 28 27 27 27 29 28 28 27
41 40 42 41 41 39 38 36 33 32 30 29 29 32 32 31 31 32 33 34 36 34 30 31 28 26 29 27 26 29 27 29 32 34 33 33 29 33 33 31 30 30 28 26 26 26 27 27 27 27 27 27 28 28
40 41 42 40 40 36 35 35 31 29 28 31 29 31 31 32 32 33 34 34 34 32 32 29 31 28 26 25 26 30 32 33 33 33 33 31 29 28 28 26 26 25 25 26 27 27 27 27 28 28 28 28 28 29
39 39 39 40 38 34 31 33 33 26 27 31 31 31 31 31 31 32 33 34 33 33 30 29 27 26 27 30 30 32 32 31 32 33 30 28 28 27 28 27 27 27 28 28 28 28 28 28 28 28 28 28 28 29
38 38 38 38 37 32 29 30 32 28 25 28 31 30 30 29 30 31 32 33 32 31 28 26 26 28 27 27 29 29 32 32 28 27 27 27 27 26 25 27 27 28 27 28 27 27 27 27 28 28 27 28 28 29
37 38 37 35 34 33 31 30 30 31 30 28 30 28 28 29 28 29 30 32 30 27 24 28 29 31 31 30 30 31 31 29 27 25 25 23 27 28 28 26 26 26 26 25 25 25 26 25 25 27 27 27 28 29
37 37 34 34 30 30 30 32 32 30 27 29 29 28 26 25 25 26 28 26 25 27 29 29 30 31 31 30 30 30 28 27 27 27 27 27 26 25 25 24 23 21 23 22 21 21 21 21 22 21 23 24 26 27
34 34 33 29 27 26 26 31 30 28 24 25 29 26 25 25 26 27 25 24 25 30 30 30 30 30 28 28 27 25 27 27 24 22 23 24 23 23 22 20 19 17 16 17 18 17 15 16 16 16 17 18 20 21
36 30 25 24 24 22 26 26 28 27 27 25 25 23 24 24 25 24 20 22 28 29 28 28 29 27 26 24 21 20 21 23 22 20 21 21 20 20 19 17 14 12 12 13 13 11 11 11 12 13 14 14 15 16
25 23 25 21 25 24 22 21 23 24 22 22 22 22 22 23 20 19 19 23 25 26 26 27 28 26 23 23 21 20 20 20 20 18 17 16 12 11 11 12 12 11 10 8 8 9 8 9 9 10 11 11 12 14
20 23 23 22 22 22 20 19 20 21 21 22 23 22 22 21 19 18 20 23 24 24 24 24 24 22 22 22 18 16 14 15 17 14 13 12 11 8 6 5 5 5 9 8 6 6 6 7 7 8 9 10 11 12
21 22 24 27 26 26 25 25 24 24 22 22 20 21 21 18 17 18 22 22 21 21 24 24 23 22 19 16 12 10 10 12 14 13 12 10 9 8 5 4 3 5 7 6 5 5 4 4 5 7 8 10 10 9
26 25 22 24 26 27 24 23 23 23 23 24 23 19 18 17 14 18 19 21 21 20 18 18 18 15 12 10 8 6 8 13 14 12 9 6 6 6 5 4 4 5 3 3 4 5 5 5 6 8 9 7 6 6
24 26 26 23 24 24 23 22 22 24 26 25 21 17 14 13 12 13 17 19 19 17 14 13 12 12 11 11 8 6 5 4 2 1 1 1 2 3 4 1 1 1 1 1 4 5 7 9 10 8 8 7 5 3
22 24 22 21 22 21 23 24 24 25 26 22 19 16 13 11 12 14 14 14 12 10 9 8 7 8 8 8 6 6 6 5 5 4 3 2 3 4 0 0 1 0 0 1 1 0 2 3 2 2 0 0 0 -0
27 26 22 21 21 23 25 25 25 25 26 21 16 12 9 10 11 11 10 9 9 7 6 5 6 4 5 5 5 5 4 3 4 5 4 4 3 1 1 1 0 -1 -1 -2 -3 -1 1 0 -1 -2 -3 -4 -4 -4
21 21 20 19 20 22 19 20 19 19 18 19 15 12 10 7 5 8 10 6 4 3 3 3 4 5 4 3 2 2 3 3 3 3 4 4 2 1 0 1 -0 -2 -5 -5 -4 -2 -1 -2 -4 -4 -5 -6 -6 -6
16 16 15 16 18 19 17 13 9 14 15 15 12 10 7 6 5 7 8 5 4 2 1 3 3 2 0 -1 -0 1 2 1 1 3 4 4 3 1 -0 -1 -2 -4 -5 -6 -5 -4 -4 -5 -6 -6 -7 -7 -8 -8

GFSWCAN_sfc_30mbdewp_012.txt.gz
Dewpoint
48 48 48 47 48 48 48 48 48 48 48 49 49 50 50 51 50 51 52 53 44 44 47 48 44 39 40 38 34 40 37 36 29 25 20 23 26 26 26 27 29 25 23 22 21 18 11 25 31 27 28 30 35 36
48 48 47 47 48 48 48 48 48 48 48 47 47 49 50 52 52 52 50 54 51 45 46 49 48 48 46 39 41 41 35 37 34 29 24 30 28 30 27 19 31 24 24 19 21 16 24 29 32 33 34 32 36 37
47 47 47 48 47 48 48 48 48 47 47 47 48 49 50 52 52 52 52 50 45 43 44 45 46 48 49 47 44 37 37 40 36 34 31 31 23 32 25 27 30 31 30 25 27 26 27 30 31 34 36 36 38 39
47 48 47 47 48 48 48 48 47 47 47 47 49 50 51 52 52 52 49 50 41 40 38 42 47 47 48 49 47 43 43 41 39 37 32 30 23 33 28 29 30 30 33 30 30 31 32 33 36 36 37 40 40 41
47 47 48 48 48 48 47 47 47 47 47 48 49 50 52 51 51 51 51 50 49 33 36 41 45 45 48 48 46 45 42 40 38 35 33 30 31 33 34 33 29 33 28 27 24 26 27 27 31 38 40 40 41 40
48 48 48 49 48 47 47 47 47 47 48 48 49 49 50 52 49 37 37 48 50 46 38 37 43 44 46 47 47 46 45 42 40 38 36 34 36 34 33 32 32 34 34 32 28 31 32 33 38 40 39 41 41 39
48 48 48 48 48 48 46 46 47 47 49 50 49 49 48 49 48 37 36 47 47 45 37 38 40 41 43 46 44 45 46 44 41 39 37 36 39 37 34 31 32 33 35 36 38 39 38 40 38 41 41 39 30 24
46 47 47 47 48 48 47 46 46 47 49 49 49 49 49 49 49 47 49 47 47 40 37 32 36 39 43 42 42 42 42 43 42 39 38 38 38 37 36 36 38 39 39 39 39 40 39 40 34 27 25 24 24 25
45 45 46 46 47 47 48 46 46 48 49 48 46 46 45 46 46 48 48 47 46 40 34 35 28 28 42 39 39 40 40 40 40 39 39 39 36 35 37 37 36 37 38 39 40 40 36 27 23 25 27 30 30 31
45 45 46 46 47 47 47 46 47 49 48 46 44 39 40 45 47 46 42 40 40 42 41 36 37 36 41 39 38 38 38 37 34 36 39 38 37 36 31 32 32 35 38 39 38 28 26 30 33 33 33 32 32 33
45 45 46 46 47 47 47 47 47 47 46 44 42 42 46 44 42 39 37 35 38 37 38 38 37 37 40 38 38 36 36 35 32 33 36 33 32 29 30 32 33 33 33 33 33 33 34 33 33 33 33 33 32 31
43 43 44 45 46 46 47 46 46 45 44 44 44 43 39 38 37 34 33 36 35 34 37 38 38 39 38 38 37 36 34 33 30 35 33 29 27 29 31 33 34 35 35 35 35 35 35 35 35 34 32 27 25 26
43 43 43 42 43 43 44 44 44 44 42 40 38 37 36 35 34 32 30 33 33 34 35 36 37 36 38 37 35 36 33 31 34 30 29 29 32 33 34 34 35 36 35 35 34 33 29 25 25 24 22 26 27 26
42 42 42 42 41 41 42 42 41 40 39 36 37 34 32 31 30 30 31 32 32 33 34 35 34 36 34 35 33 32 31 31 28 26 25 30 31 31 32 33 32 30 25 22 23 24 24 24 25 27 27 26 27 26
41 41 40 41 41 41 40 39 38 37 34 32 31 28 28 30 31 31 32 32 33 34 34 34 33 34 32 31 31 29 27 25 25 24 28 31 31 30 25 30 31 28 27 25 25 26 26 26 26 26 27 28 28 28
40 40 41 42 41 39 39 37 35 34 32 30 30 29 30 30 30 31 32 32 35 34 34 34 31 30 29 29 27 25 24 22 25 30 31 32 31 31 32 33 32 32 30 27 28 28 28 26 26 27 28 27 27 27
39 39 41 41 40 37 37 34 32 31 29 28 29 32 32 31 31 32 33 33 36 34 30 30 28 26 29 26 26 28 25 28 31 32 33 32 33 33 33 33 31 30 29 27 27 27 27 26 26 27 27 28 28 28
37 38 39 40 38 35 34 33 29 28 28 30 29 30 31 32 32 32 33 33 33 32 31 28 29 26 25 24 25 29 30 32 33 33 33 33 30 30 30 26 26 26 27 27 27 28 28 27 27 27 27 27 27 27
38 38 38 38 36 32 31 32 30 25 28 31 31 31 31 31 31 32 33 33 33 31 30 28 27 25 26 28 30 31 31 31 30 32 31 30 28 28 27 27 27 27 27 27 27 27 27 27 27 26 25 25 25 25
37 38 37 36 35 30 28 29 31 27 25 28 31 30 29 29 30 31 32 33 32 31 28 26 25 26 27 27 28 31 32 32 30 29 26 26 27 27 27 27 27 27 26 26 25 24 23 22 22 22 21 20 21 22
34 36 35 33 32 31 30 30 30 29 29 28 29 28 27 28 28 28 29 31 30 28 24 27 27 28 29 29 28 30 31 27 26 26 26 26 27 25 24 23 22 23 22 20 19 19 19 19 18 17 16 17 18 20
34 35 31 30 29 29 28 31 30 30 27 29 29 28 26 25 25 27 28 28 27 27 29 28 29 31 30 28 28 28 28 27 27 27 26 26 24 23 20 19 18 17 17 17 17 14 12 14 13 13 13 13 16 16
34 32 28 26 22 23 24 30 27 27 21 24 28 26 25 25 27 28 25 26 26 30 30 30 28 28 26 26 25 25 24 21 20 21 22 21 20 19 16 14 11 9 9 11 13 12 9 9 9 9 10 10 11 11
32 28 24 22 22 21 25 24 26 25 25 22 24 23 24 24 26 24 21 22 27 28 28 28 27 25 24 22 20 20 22 21 19 18 19 19 17 16 14 12 10 9 8 8 7 7 6 5 6 6 7 7 7 8
20 22 22 20 24 22 20 19 21 22 20 20 20 21 22 23 20 20 19 22 24 24 25 27 26 25 20 19 19 18 19 21 17 14 13 11 10 9 8 8 8 8 7 4 3 3 3 3 3 4 5 6 6 8
18 22 21 20 21 21 20 19 19 20 20 21 21 21 21 20 18 17 18 19 22 21 22 23 21 19 18 19 17 15 14 16 14 11 10 9 6 3 2 0 -0 1 5 4 2 1 2 2 2 2 4 6 6 5
20 21 23 25 25 24 23 23 23 22 21 20 21 20 20 17 15 16 20 19 19 19 20 21 21 18 15 13 11 12 13 13 12 10 10 8 7 5 2 0 0 2 4 3 1 0 0 0 1 3 4 5 4 3
24 24 21 22 24 25 23 22 22 21 22 23 22 18 17 14 12 15 17 19 18 16 15 13 13 11 9 8 8 10 11 11 10 9 7 5 5 3 2 0 -0 3 1 -1 -0 1 1 1 3 4 4 4 2 0
24 25 24 22 22 22 21 21 21 23 24 24 20 16 12 11 11 11 14 16 16 14 11 10 10 10 9 7 6 5 3 4 2 0 0 0 0 1 2 -1 -2 -2 -2 -3 -0 2 5 7 5 2 -0 -0 1 1
22 23 21 19 20 20 21 23 23 24 22 19 17 14 11 9 11 12 13 12 10 8 7 7 7 9 7 5 4 4 2 2 3 3 1 0 1 2 -0 -1 -1 -1 -3 -4 -5 -4 -0 -1 -3 -4 -5 -6 -6 -6
26 25 23 20 20 22 23 26 25 26 24 16 13 10 7 8 9 9 8 7 7 6 5 4 4 1 4 3 3 3 3 1 0 1 1 1 1 1 -0 -1 -3 -5 -6 -7 -6 -5 -4 -4 -6 -6 -7 -7 -8 -9
20 19 19 18 19 18 16 17 16 17 18 17 11 9 6 6 4 6 6 4 1 1 1 1 3 4 3 1 -1 -1 1 1 1 1 1 2 2 1 -2 -2 -5 -6 -6 -7 -7 -6 -6 -6 -7 -8 -9 -9 -10 -10
15 15 15 16 17 18 14 11 6 12 12 12 8 7 4 5 4 6 5 2 2 1 1 2 2 1 -0 -2 -1 -0 0 -1 -2 -0 2 2 1 0 -2 -4 -5 -6 -5 -6 -7 -8 -7 -7 -8 -9 -10 -11 -11 -12